EW2727 Weather Reports


time (UTC)temp
C
wind
direction
speed
KPH
gust
KPH
rain 1hr
cm
rain 24hr
cm
rain mn
cm
humidity
%
barometer
mb
20260508004549 13 346 0.0 0.0 0.00 0.25 0.25 37 1007.7
20260508003048 14 306 0.0 0.0 0.00 0.25 0.25 36 1007.6
20260508001550 14 317 0.0 0.0 0.00 0.25 0.25 36 1007.2
20260508001547 14 313 0.0 0.0 0.00 0.25 0.25 36 1007.2
20260508000050 15 355 0.0 0.0 0.00 0.30 0.25 35 1007.2
20260507234546 15 300 0.0 0.0 0.00 0.30 0.25 34 1007.0
20260507234544 15 307 0.0 0.0 0.00 0.30 0.25 34 1007.0
20260507233047 15 315 0.0 0.0 0.00 0.30 0.25 33 1006.9
20260507231543 15 331 0.0 0.0 0.00 0.30 0.25 32 1006.7
20260507230048 16 331 0.0 0.0 0.00 0.33 0.25 32 1006.6
20260507224543 16 339 0.0 0.0 0.00 0.33 0.25 31 1006.5
20260507223039 16 296 0.0 0.0 0.00 0.33 0.25 32 1006.3
20260507221541 16 298 0.0 0.0 0.00 0.33 0.25 31 1006.3
20260507220037 17 11 0.0 0.0 0.00 0.38 0.25 31 1006.1
20260507214542 17 300 0.0 0.0 0.00 0.38 0.25 30 1005.9
20260507213042 17 339 0.0 0.0 0.00 0.38 0.25 31 1005.8
20260507211536 17 300 0.0 0.0 0.00 0.38 0.25 31 1005.8
20260507210034 17 341 0.0 0.0 0.00 0.41 0.25 31 1005.7
20260507204532 17 360 0.0 0.0 0.00 0.41 0.25 31 1005.7
20260507203039 17 360 0.0 0.0 0.00 0.41 0.25 31 1005.7
20260507201530 17 301 0.0 0.0 0.00 0.41 0.25 30 1005.7
20260507200027 17 323 0.0 0.0 0.00 0.41 0.25 31 1005.8
20260507194526 17 84 0.0 0.0 0.00 0.41 0.25 29 1005.9
20260507193025 17 346 0.0 0.0 0.00 0.41 0.25 29 1006.0
20260507191523 17 342 0.0 0.0 0.00 0.41 0.25 31 1006.2
20260507190021 17 344 0.0 0.0 0.00 0.41 0.25 31 1006.2
20260507184518 17 46 0.0 0.0 0.00 0.41 0.25 33 1006.2
20260507183015 16 355 0.0 0.0 0.00 0.41 0.25 35 1006.4
20260507181514 16 339 0.0 0.0 0.00 0.41 0.25 35 1006.6
20260507180018 16 286 0.0 0.0 0.00 0.41 0.25 36 1006.7
20260507174509 16 339 0.0 0.0 0.00 0.41 0.25 37 1006.7
20260507173019 16 321 0.0 0.0 0.00 0.41 0.25 38 1006.8
20260507171509 16 329 0.0 0.0 0.00 0.41 0.25 43 1006.8
20260507170000 15 302 0.0 0.0 0.00 0.41 0.25 47 1006.9
20260507164605 15 10 0.0 0.0 0.00 0.41 0.25 51 1007.1
20260507163058 15 308 0.0 0.0 0.00 0.41 0.25 51 1007.3
20260507161556 15 286 0.0 0.0 0.00 0.41 0.25 50 1007.5
20260507160054 14 327 0.0 0.0 0.00 0.41 0.25 55 1007.8
20260507154554 14 333 0.0 0.0 0.00 0.41 0.25 56 1007.8
20260507153049 13 294 0.0 0.0 0.00 0.41 0.25 58 1007.9
20260507151549 13 320 0.0 0.0 0.00 0.41 0.25 58 1008.2
20260507150047 13 299 0.0 0.0 0.00 0.41 0.25 58 1008.1
20260507144546 13 331 0.0 0.0 0.00 0.41 0.25 59 1008.3
20260507143045 13 313 0.0 0.0 0.00 0.41 0.25 58 1008.6
20260507141551 13 336 0.0 0.0 0.00 0.41 0.25 59 1008.5
20260507140012 12 302 0.0 0.0 0.00 0.41 0.25 64 1008.6
20260507134512 12 347 0.0 0.0 0.00 0.41 0.25 70 1008.5
20260507133055 11 298 0.0 0.0 0.00 0.41 0.25 71 1008.6
20260507131639 11 355 0.0 0.0 0.00 0.41 0.25 73 1008.7
20260507130005 11 113 0.0 0.0 0.00 0.41 0.25 80 1008.6
20260507124506 10 336 0.0 0.0 0.00 0.41 0.25 84 1008.8
20260507123006 10 338 0.0 0.0 0.00 0.41 0.25 85 1008.9
20260507121503 10 336 0.0 0.0 0.00 0.41 0.25 87 1008.5
20260507120105 10 355 0.0 0.0 0.00 0.41 0.25 87 1008.5
20260507114638 9 343 0.0 0.0 0.00 0.41 0.25 88 1008.6
20260507113100 9 310 0.0 0.0 0.00 0.41 0.25 88 1008.5
20260507111602 9 336 0.0 0.0 0.00 0.41 0.25 89 1008.4
20260507110056 9 350 0.0 0.0 0.03 0.41 0.25 89 1008.3
20260507104554 9 296 0.0 0.0 0.03 0.41 0.25 89 1008.5
20260507103054 9 315 0.0 0.0 0.05 0.41 0.25 89 1009.0
20260507101555 9 317 0.0 0.0 0.08 0.41 0.25 90 1008.3
20260507100050 9 304 0.0 0.0 0.08 0.38 0.23 90 1008.3
20260507094520 9 319 0.0 0.0 0.15 0.38 0.23 89 1008.2
20260507093016 10 300 0.0 0.0 0.15 0.36 0.20 89 1008.1
20260507091547 10 338 0.0 0.0 0.15 0.33 0.18 88 1007.6
20260507090047 10 329 0.0 0.0 0.15 0.30 0.15 87 1008.2
20260507084548 10 329 0.0 0.0 0.08 0.23 0.08 86 1008.1
20260507083036 11 9 0.0 0.0 0.05 0.20 0.05 86 1007.7
20260507081533 11 336 0.0 0.0 0.03 0.18 0.03 86 1007.6
20260507080031 12 308 0.0 0.0 0.00 0.15 0.00 86 1007.9
20260507074559 12 316 0.0 0.0 0.00 0.15 0.00 86 1007.5
20260507073105 12 348 0.0 0.0 0.00 0.15 0.00 86 1007.2
20260507071552 12 342 0.0 0.0 0.00 0.15 0.00 86 1006.7
20260507070050 13 313 0.0 0.0 0.00 0.15 0.00 85 1006.6
20260507064548 13 345 0.0 0.0 0.00 0.15 0.00 85 1006.9
20260507063052 13 315 0.0 0.0 0.00 0.15 0.00 86 1006.9
20260507061543 13 344 0.0 0.0 0.00 0.15 0.00 86 1006.6
20260507060041 14 360 0.0 0.0 0.00 0.15 0.00 86 1006.9
20260507054541 14 355 0.0 0.0 0.00 0.15 0.00 87 1007.0
20260507053039 14 307 0.0 0.0 0.00 0.15 0.00 88 1007.1
20260507051534 14 321 0.0 0.0 0.00 0.15 0.00 89 1007.0
20260507050034 15 331 0.0 0.0 0.00 0.15 0.00 91 1006.9
20260507044530 15 317 0.0 0.0 0.00 0.15 0.00 93 1006.9
20260507043029 15 319 0.0 0.0 0.00 0.15 0.00 93 1006.7
20260507041526 15 355 0.0 0.0 0.00 0.15 0.00 93 1006.8
20260507040024 15 306 0.0 0.0 0.00 0.15 0.15 93 1007.1
20260507034524 15 263 0.0 0.0 0.00 0.15 0.15 93 1007.1
20260507033026 15 288 0.0 0.0 0.00 0.15 0.15 93 1006.9
20260507031553 15 284 0.0 0.0 0.00 0.15 0.15 93 1006.7
20260507030052 15 270 0.0 0.0 0.00 0.15 0.15 93 1006.6
20260507024600 14 290 0.0 0.0 0.00 0.15 0.15 93 1006.6
20260507023050 14 250 0.0 0.0 0.00 0.15 0.15 93 1006.6
20260507021547 14 240 0.0 0.0 0.00 0.15 0.15 93 1006.6
20260507020105 14 289 0.0 0.0 0.00 0.15 0.15 93 1006.6
20260507014523 14 247 0.0 0.0 0.00 0.15 0.15 93 1006.8
20260507013035 14 246 0.0 0.0 0.00 0.15 0.15 93 1006.9
20260507011514 14 268 0.0 0.0 0.00 0.15 0.15 93 1007.0
20260507010018 13 258 0.0 0.0 0.00 0.15 0.15 93 1007.2